Time,TemperatureF,DewpointF,PressureIn,WindDirection,WindDirectionDegrees,WindSpeedMPH,WindSpeedGustMPH,Humidity,HourlyPrecipIn,Conditions,Clouds,dailyrainin,SoftwareType,DateUTC
2013-05-26 00:02:00,49.2,45.0,30.16,NW,312,0.0,0.0,85,0.00,,,0.00,weatherlink.com 1.10,2013-05-26 04:02:00,
2013-05-26 00:17:00,48.5,45.0,30.16,NW,312,1.0,1.0,88,0.00,,,0.00,weatherlink.com 1.10,2013-05-26 04:17:00,
2013-05-26 00:32:00,48.4,44.0,30.16,NW,312,1.0,2.0,84,0.00,,,0.00,weatherlink.com 1.10,2013-05-26 04:32:00,
2013-05-26 00:48:00,48.4,44.0,30.16,NW,312,1.0,2.0,83,0.00,,,0.00,weatherlink.com 1.10,2013-05-26 04:48:00,
2013-05-26 01:03:00,48.5,43.0,30.16,NW,312,0.0,2.0,82,0.00,,,0.00,weatherlink.com 1.10,2013-05-26 05:03:00,
2013-05-26 01:18:00,48.3,43.0,30.16,NW,312,1.0,1.0,81,0.00,,,0.00,weatherlink.com 1.10,2013-05-26 05:18:00,
2013-05-26 01:33:00,48.2,42.0,30.16,NW,312,1.0,2.0,78,0.00,,,0.00,weatherlink.com 1.10,2013-05-26 05:33:00,
2013-05-26 01:48:00,48.1,42.0,30.16,NW,312,1.0,2.0,78,0.00,,,0.00,weatherlink.com 1.10,2013-05-26 05:48:00,
2013-05-26 02:03:00,47.7,42.0,30.16,NW,312,0.0,1.0,80,0.00,,,0.00,weatherlink.com 1.10,2013-05-26 06:03:00,
2013-05-26 02:18:00,47.8,41.0,30.16,NW,312,1.0,2.0,76,0.00,,,0.00,weatherlink.com 1.10,2013-05-26 06:18:00,
2013-05-26 02:33:00,47.7,40.0,30.16,NNW,332,2.0,3.0,76,0.00,,,0.00,weatherlink.com 1.10,2013-05-26 06:33:00,
2013-05-26 02:48:00,47.8,41.0,30.15,NNE,18,1.0,3.0,76,0.00,,,0.00,weatherlink.com 1.10,2013-05-26 06:48:00,
2013-05-26 03:03:00,47.6,40.0,30.16,NNE,18,1.0,2.0,76,0.00,,,0.00,weatherlink.com 1.10,2013-05-26 07:03:00,
2013-05-26 03:18:00,47.0,40.0,30.15,NNE,18,0.0,1.0,78,0.00,,,0.00,weatherlink.com 1.10,2013-05-26 07:18:00,
2013-05-26 03:33:00,46.5,40.0,30.15,NNE,18,0.0,1.0,78,0.00,,,0.00,weatherlink.com 1.10,2013-05-26 07:33:00,
2013-05-26 03:48:00,46.0,40.0,30.14,NNE,18,0.0,2.0,80,0.00,,,0.00,weatherlink.com 1.10,2013-05-26 07:48:00,
2013-05-26 04:03:00,45.9,40.0,30.14,NNE,18,0.0,2.0,80,0.00,,,0.00,weatherlink.com 1.10,2013-05-26 08:03:00,
2013-05-26 04:18:00,46.2,40.0,30.14,NNE,18,1.0,2.0,79,0.00,,,0.00,weatherlink.com 1.10,2013-05-26 08:18:00,
2013-05-26 04:33:00,46.4,40.0,30.14,NNE,18,1.0,2.0,79,0.00,,,0.00,weatherlink.com 1.10,2013-05-26 08:33:00,
2013-05-26 04:48:00,46.2,40.0,30.14,NNE,18,1.0,2.0,80,0.00,,,0.00,weatherlink.com 1.10,2013-05-26 08:48:00,
2013-05-26 05:03:00,45.8,40.0,30.15,NNE,18,0.0,2.0,81,0.00,,,0.00,weatherlink.com 1.10,2013-05-26 09:03:00,
2013-05-26 05:18:00,45.8,40.0,30.15,NNE,20,0.0,2.0,81,0.00,,,0.00,weatherlink.com 1.10,2013-05-26 09:18:00,
2013-05-26 05:33:00,45.3,40.0,30.16,NNE,20,1.0,3.0,83,0.00,,,0.00,weatherlink.com 1.10,2013-05-26 09:33:00,
2013-05-26 05:48:00,44.9,40.0,30.17,NNE,20,0.0,0.0,84,0.00,,,0.00,weatherlink.com 1.10,2013-05-26 09:48:00,
2013-05-26 06:03:00,44.7,40.0,30.16,NNE,20,0.0,2.0,84,0.00,,,0.00,weatherlink.com 1.10,2013-05-26 10:03:00,
2013-05-26 06:18:00,44.6,40.0,30.16,NNE,20,0.0,2.0,85,0.00,,,0.00,weatherlink.com 1.10,2013-05-26 10:18:00,
2013-05-26 06:33:00,44.7,41.0,30.16,NNE,20,0.0,2.0,85,0.00,,,0.00,weatherlink.com 1.10,2013-05-26 10:33:00,
2013-05-26 06:48:00,45.6,41.0,30.17,NNE,25,0.0,2.0,84,0.00,,,0.00,weatherlink.com 1.10,2013-05-26 10:48:00,
2013-05-26 07:03:00,46.7,42.0,30.18,NNE,29,1.0,2.0,82,0.00,,,0.00,weatherlink.com 1.10,2013-05-26 11:03:00,
2013-05-26 07:18:00,48.0,42.0,30.18,NE,50,1.0,3.0,79,0.00,,,0.00,weatherlink.com 1.10,2013-05-26 11:18:00,
2013-05-26 07:33:00,49.1,42.0,30.17,ENE,78,2.0,3.0,76,0.00,,,0.00,weatherlink.com 1.10,2013-05-26 11:33:00,
2013-05-26 07:48:00,50.0,43.0,30.17,ENE,68,1.0,6.0,76,0.00,,,0.00,weatherlink.com 1.10,2013-05-26 11:48:00,
2013-05-26 08:03:00,50.9,43.0,30.17,East,83,2.0,6.0,74,0.00,,,0.00,weatherlink.com 1.10,2013-05-26 12:03:00,
2013-05-26 08:18:00,51.8,43.0,30.18,ESE,118,3.0,7.0,71,0.00,,,0.00,weatherlink.com 1.10,2013-05-26 12:18:00,
2013-05-26 08:33:00,52.6,44.0,30.19,ENE,66,4.0,7.0,72,0.00,,,0.00,weatherlink.com 1.10,2013-05-26 12:33:00,
2013-05-26 08:48:00,53.4,44.0,30.19,ENE,78,3.0,7.0,71,0.00,,,0.00,weatherlink.com 1.10,2013-05-26 12:48:00,
2013-05-26 09:03:00,53.8,43.0,30.18,East,95,2.0,8.0,68,0.00,,,0.00,weatherlink.com 1.10,2013-05-26 13:03:00,
2013-05-26 09:19:00,54.3,44.0,30.19,East,96,5.0,8.0,69,0.00,,,0.00,weatherlink.com 1.10,2013-05-26 13:19:00,
2013-05-26 09:34:00,55.7,44.0,30.18,East,93,6.0,8.0,64,0.00,,,0.00,weatherlink.com 1.10,2013-05-26 13:34:00,
2013-05-26 09:49:00,56.3,44.0,30.18,SE,134,6.0,11.0,63,0.00,,,0.00,weatherlink.com 1.10,2013-05-26 13:49:00,
2013-05-26 10:04:00,57.7,44.0,30.19,East,88,6.0,9.0,60,0.00,,,0.00,weatherlink.com 1.10,2013-05-26 14:04:00,
2013-05-26 10:19:00,58.0,44.0,30.19,SE,139,5.0,10.0,59,0.00,,,0.00,weatherlink.com 1.10,2013-05-26 14:19:00,
2013-05-26 10:34:00,58.8,43.0,30.18,ESE,121,2.0,9.0,57,0.00,,,0.00,weatherlink.com 1.10,2013-05-26 14:34:00,
2013-05-26 10:49:00,60.0,43.0,30.18,ENE,77,5.0,10.0,53,0.00,,,0.00,weatherlink.com 1.10,2013-05-26 14:49:00,
2013-05-26 11:04:00,60.3,43.0,30.17,East,98,5.0,11.0,53,0.00,,,0.00,weatherlink.com 1.10,2013-05-26 15:04:00,
2013-05-26 11:19:00,61.4,42.0,30.17,ENE,71,8.0,10.0,49,0.00,,,0.00,weatherlink.com 1.10,2013-05-26 15:19:00,
2013-05-26 11:34:00,62.1,44.0,30.17,ENE,69,4.0,13.0,51,0.00,,,0.00,weatherlink.com 1.10,2013-05-26 15:34:00,
2013-05-26 11:49:00,62.9,43.0,30.17,ESE,107,5.0,9.0,48,0.00,,,0.00,weatherlink.com 1.10,2013-05-26 15:49:00,
2013-05-26 12:04:00,62.9,41.0,30.17,East,81,6.0,12.0,45,0.00,,,0.00,weatherlink.com 1.10,2013-05-26 16:04:00,
2013-05-26 12:19:00,62.7,40.0,30.17,SSE,149,4.0,10.0,44,0.00,,,0.00,weatherlink.com 1.10,2013-05-26 16:19:00,
2013-05-26 12:34:00,63.3,41.0,30.17,SE,131,6.0,8.0,45,0.00,,,0.00,weatherlink.com 1.10,2013-05-26 16:34:00,
2013-05-26 12:49:00,63.8,42.0,30.17,SE,142,3.0,9.0,45,0.00,,,0.00,weatherlink.com 1.10,2013-05-26 16:49:00,
2013-05-26 13:04:00,63.4,41.0,30.17,SSE,167,3.0,11.0,44,0.00,,,0.00,weatherlink.com 1.10,2013-05-26 17:04:00,
2013-05-26 13:19:00,64.3,41.0,30.16,SSW,194,2.0,11.0,43,0.00,,,0.00,weatherlink.com 1.10,2013-05-26 17:19:00,
2013-05-26 13:34:00,65.0,43.0,30.16,SE,136,4.0,11.0,45,0.00,,,0.00,weatherlink.com 1.10,2013-05-26 17:34:00,
2013-05-26 13:49:00,65.2,43.0,30.15,SSE,164,2.0,8.0,44,0.00,,,0.00,weatherlink.com 1.10,2013-05-26 17:49:00,
2013-05-26 14:04:00,65.7,42.0,30.15,SE,142,7.0,8.0,42,0.00,,,0.00,weatherlink.com 1.10,2013-05-26 18:04:00,
2013-05-26 14:19:00,65.8,45.0,30.14,ENE,73,4.0,8.0,47,0.00,,,0.00,weatherlink.com 1.10,2013-05-26 18:19:00,
2013-05-26 14:34:00,66.9,42.0,30.14,ESE,104,2.0,10.0,41,0.00,,,0.00,weatherlink.com 1.10,2013-05-26 18:34:00,
2013-05-26 14:49:00,67.2,41.0,30.13,SSW,211,4.0,9.0,39,0.00,,,0.00,weatherlink.com 1.10,2013-05-26 18:49:00,
2013-05-26 15:04:00,66.5,41.0,30.13,SE,132,6.0,11.0,40,0.00,,,0.00,weatherlink.com 1.10,2013-05-26 19:04:00,
2013-05-26 15:19:00,66.3,40.0,30.13,SE,134,0.0,7.0,38,0.00,,,0.00,weatherlink.com 1.10,2013-05-26 19:19:00,
2013-05-26 15:34:00,66.4,43.0,30.12,East,86,7.0,10.0,43,0.00,,,0.00,weatherlink.com 1.10,2013-05-26 19:34:00,
2013-05-26 15:49:00,66.2,41.0,30.12,ESE,112,3.0,9.0,40,0.00,,,0.00,weatherlink.com 1.10,2013-05-26 19:49:00,
2013-05-26 16:04:00,67.0,41.0,30.11,East,100,2.0,8.0,39,0.00,,,0.00,weatherlink.com 1.10,2013-05-26 20:04:00,
2013-05-26 16:19:00,66.6,40.0,30.11,East,89,1.0,11.0,38,0.00,,,0.00,weatherlink.com 1.10,2013-05-26 20:19:00,
2013-05-26 16:34:00,66.1,42.0,30.11,East,79,3.0,7.0,42,0.00,,,0.00,weatherlink.com 1.10,2013-05-26 20:34:00,
2013-05-26 16:49:00,66.5,40.0,30.10,ESE,104,2.0,8.0,38,0.00,,,0.00,weatherlink.com 1.10,2013-05-26 20:49:00,
2013-05-26 17:04:00,66.8,42.0,30.10,ESE,111,4.0,6.0,41,0.00,,,0.00,weatherlink.com 1.10,2013-05-26 21:04:00,
2013-05-26 17:20:00,67.1,40.0,30.09,ESE,113,3.0,8.0,37,0.00,,,0.00,weatherlink.com 1.10,2013-05-26 21:20:00,
2013-05-26 17:35:00,66.9,44.0,30.09,SE,124,1.0,8.0,43,0.00,,,0.00,weatherlink.com 1.10,2013-05-26 21:35:00,
2013-05-26 17:50:00,67.4,43.0,30.09,East,99,2.0,9.0,41,0.00,,,0.00,weatherlink.com 1.10,2013-05-26 21:50:00,
2013-05-26 18:05:00,67.8,40.0,30.08,East,80,5.0,10.0,37,0.00,,,0.00,weatherlink.com 1.10,2013-05-26 22:05:00,
2013-05-26 18:20:00,67.1,42.0,30.08,ESE,114,3.0,7.0,40,0.00,,,0.00,weatherlink.com 1.10,2013-05-26 22:20:00,
2013-05-26 18:35:00,67.9,43.0,30.08,East,99,2.0,7.0,40,0.00,,,0.00,weatherlink.com 1.10,2013-05-26 22:35:00,
2013-05-26 18:50:00,68.0,42.0,30.06,SE,146,3.0,7.0,39,0.00,,,0.00,weatherlink.com 1.10,2013-05-26 22:50:00,
2013-05-26 19:05:00,67.5,42.0,30.06,East,86,2.0,8.0,40,0.00,,,0.00,weatherlink.com 1.10,2013-05-26 23:05:00,
2013-05-26 19:20:00,66.3,41.0,30.05,East,80,5.0,8.0,40,0.00,,,0.00,weatherlink.com 1.10,2013-05-26 23:20:00,
2013-05-26 19:35:00,65.9,43.0,30.05,East,89,2.0,6.0,43,0.00,,,0.00,weatherlink.com 1.10,2013-05-26 23:35:00,
2013-05-26 19:50:00,65.6,40.0,30.05,East,80,5.0,8.0,39,0.00,,,0.00,weatherlink.com 1.10,2013-05-26 23:50:00,
2013-05-26 20:05:00,65.4,42.0,30.05,East,89,2.0,5.0,43,0.00,,,0.00,weatherlink.com 1.10,2013-05-27 00:05:00,
2013-05-26 20:20:00,64.9,41.0,30.05,ENE,77,2.0,5.0,42,0.00,,,0.00,weatherlink.com 1.10,2013-05-27 00:20:00,
2013-05-26 20:35:00,64.5,41.0,30.05,East,82,1.0,3.0,43,0.00,,,0.00,weatherlink.com 1.10,2013-05-27 00:35:00,
2013-05-26 20:50:00,63.8,41.0,30.04,East,82,1.0,2.0,44,0.00,,,0.00,weatherlink.com 1.10,2013-05-27 00:50:00,
2013-05-26 21:05:00,63.1,43.0,30.05,East,82,0.0,2.0,49,0.00,,,0.00,weatherlink.com 1.10,2013-05-27 01:05:00,
2013-05-26 21:20:00,62.5,43.0,30.06,East,82,0.0,2.0,50,0.00,,,0.00,weatherlink.com 1.10,2013-05-27 01:20:00,
2013-05-26 21:35:00,61.7,43.0,30.06,East,82,1.0,2.0,51,0.00,,,0.00,weatherlink.com 1.10,2013-05-27 01:35:00,
2013-05-26 21:50:00,60.8,43.0,30.06,East,82,0.0,2.0,52,0.00,,,0.00,weatherlink.com 1.10,2013-05-27 01:50:00,
2013-05-26 22:05:00,60.6,41.0,30.06,ENE,71,2.0,4.0,49,0.00,,,0.00,weatherlink.com 1.10,2013-05-27 02:05:00,
2013-05-26 22:20:00,60.9,41.0,30.07,ENE,76,2.0,3.0,48,0.00,,,0.00,weatherlink.com 1.10,2013-05-27 02:20:00,
2013-05-26 22:35:00,61.2,41.0,30.07,East,98,0.0,5.0,47,0.00,,,0.00,weatherlink.com 1.10,2013-05-27 02:35:00,
2013-05-26 22:50:00,60.9,40.0,30.07,ENE,76,2.0,5.0,47,0.00,,,0.00,weatherlink.com 1.10,2013-05-27 02:50:00,
2013-05-26 23:05:00,60.8,40.0,30.07,East,80,2.0,4.0,46,0.00,,,0.00,weatherlink.com 1.10,2013-05-27 03:05:00,
2013-05-26 23:20:00,60.7,38.0,30.06,ENE,71,1.0,4.0,44,0.00,,,0.00,weatherlink.com 1.10,2013-05-27 03:20:00,
2013-05-26 23:35:00,60.8,37.0,30.06,ENE,74,3.0,4.0,42,0.00,,,0.00,weatherlink.com 1.10,2013-05-27 03:35:00,
2013-05-26 23:50:00,60.8,37.0,30.05,ENE,61,4.0,7.0,41,0.00,,,0.00,weatherlink.com 1.10,2013-05-27 03:50:00,